Location: Strawberry
(45.6646°N, 111.9596°W)
Time: 21:53:46
(UTC+00:00)

Courier 1B - Pass Details

Date: 06 October 2022
Orbit: 962 x 1209 km, 28.3° (Epoch: 29 November)

Event Time Altitude Azimuth Distance (km) Brightness Sun altitude
Rises 23:59:33 0° 248° (WSW) 3,945 13.0 9.5°
Reaches altitude 10° 00:03:42 10° 227° (SW) 2,930 11.4 8.8°
Maximum altitude 00:07:32 15° 194° (SSW) 2,507 10.2 8.2°
Drops below altitude 10° 00:11:16 10° 161° (SSE) 2,828 9.9 7.6°
Sets 00:15:10 0° 140° (SE) 3,730 10.3 6.9°
